TimeCST,TemperatureF,Dew PointF,Humidity,Sea Level PressureIn,VisibilityMPH,Wind Direction,Wind SpeedMPH,Gust SpeedMPH,PrecipitationIn,Events,Conditions,WindDirDegrees,DateUTC
12:52 AM,55.0,42.1,62,30.15,10.0,SSE,8.1,-,N/A,,Clear,150,2012-11-11 06:52:00
1:52 AM,52.0,42.1,69,30.16,10.0,SSE,6.9,-,N/A,,Clear,150,2012-11-11 07:52:00
2:52 AM,53.1,41.0,64,30.16,10.0,SSE,5.8,-,N/A,,Clear,150,2012-11-11 08:52:00
3:52 AM,52.0,41.0,66,30.18,10.0,SSE,8.1,-,N/A,,Clear,150,2012-11-11 09:52:00
4:52 AM,53.1,41.0,64,30.19,10.0,SSE,10.4,-,N/A,,Clear,150,2012-11-11 10:52:00
5:52 AM,53.1,39.9,61,30.19,10.0,SSE,6.9,-,N/A,,Clear,160,2012-11-11 11:52:00
6:52 AM,54.0,41.0,62,30.20,10.0,South,6.9,-,N/A,,Clear,170,2012-11-11 12:52:00
7:52 AM,57.0,43.0,59,30.21,10.0,SSE,11.5,18.4,N/A,,Clear,160,2012-11-11 13:52:00
8:52 AM,62.1,44.1,52,30.20,10.0,South,9.2,-,N/A,,Clear,170,2012-11-11 14:52:00
9:52 AM,64.9,44.1,47,30.21,10.0,South,13.8,25.3,N/A,,Mostly Cloudy,180,2012-11-11 15:52:00
10:52 AM,66.0,42.1,42,30.19,10.0,South,13.8,21.9,N/A,,Mostly Cloudy,180,2012-11-11 16:52:00
12:52 PM,70.0,48.0,46,30.12,10.0,South,17.3,23.0,N/A,,Scattered Clouds,180,2012-11-11 18:52:00
1:52 PM,71.1,48.9,45,30.10,10.0,South,18.4,27.6,N/A,,Overcast,170,2012-11-11 19:52:00
2:52 PM,71.1,46.9,42,30.08,10.0,South,16.1,24.2,N/A,,Scattered Clouds,180,2012-11-11 20:52:00
3:52 PM,70.0,46.0,42,30.07,10.0,South,18.4,36.8,N/A,,Clear,170,2012-11-11 21:52:00
4:52 PM,68.0,48.0,49,30.05,10.0,SSE,13.8,23.0,N/A,,Clear,160,2012-11-11 22:52:00
5:52 PM,66.9,48.9,52,30.06,10.0,SSE,13.8,26.5,N/A,,Clear,160,2012-11-11 23:52:00
6:52 PM,66.9,50.0,54,30.05,10.0,South,17.3,27.6,N/A,,Clear,180,2012-11-12 00:52:00
7:52 PM,66.0,48.9,54,30.05,10.0,South,16.1,25.3,N/A,,Clear,170,2012-11-12 01:52:00
8:52 PM,66.0,48.0,52,30.05,10.0,South,16.1,25.3,N/A,,Scattered Clouds,170,2012-11-12 02:52:00
9:52 PM,66.0,48.9,54,30.09,10.0,South,15.0,28.8,N/A,,Overcast,180,2012-11-12 03:52:00
10:52 PM,61.0,54.0,78,30.08,6.0,South,9.2,-,0.09,Rain,Rain,170,2012-11-12 04:52:00
11:52 PM,60.1,54.0,80,30.06,10.0,South,13.8,24.2,0.15,Rain,Light Rain,180,2012-11-12 05:52:00